sat.trackr.live / text

‹ back to catalog

STARLINK-32481

NORAD 62320 · 2024-239V

PAYLOAD ACTIVE UNKNOWN

§ Identity

Operator
Country
US
Launch date
2024-12-13
Launch site
AFWTR
Launch vehicle
Mass (kg)
RCS (m²)

Purposes: comms

External: N2YO · Heavens-Above · Gunter

§ Orbital elements

Epoch: 2026-09-21T13:07:58.365984Z

Period
93.85 min
Inclination
53.1594°
Eccentricity
0.0000822
Mean motion
15.34399454 rev/d
Perigee alt
462.1 km
Apogee alt
463.3 km
Semi-major
6,840.8 km
B*
6.3817e-4
RAAN
350.4753°
Arg perigee
91.8199°
Mean anomaly
268.2897°
Rev number
9,956

§ Raw data

STARLINK-324811 62320U 24239V   26264.54720331  .00021246  00000+0  63817-3 0  99902 62320  53.1594 350.4753 0000822  91.8199 268.2897 15.34399454 99566

JSON: /api/v1/satellites/62320 · /tle

For live sub-satellite position, see the globe view (requires WebGL).

§ Visibility from observer

Set your observer location to see the next 7 days of passes ≥ 10°. The values pass through the URL so the page stays shareable.

No JS? Fill the form by hand. The geolocation button needs JavaScript.